Simultaneous Nadir Overpasses (SNOs) Predictions

Prediction of SNOs between GOES-15 and TERRA Satellite Orbit:

Table of predicted SNOs for the next 14.0 days since TLE Epoch: 9/23/2023
Index Date Time (GOES-15) GOES-15 Lat,Lon TERRA Lat,Lon Distance(km) Time Diff (sec)
1 09/23/2023 03:10:23 -0.33, 105.38 0.15, 103.10 259.51 80
2 09/25/2023 02:51:21 -0.31, 103.27 -1.07, 106.99 422.88 80
3 09/25/2023 15:14:22 0.32, 102.82 0.18, 102.03 89.56 80
4 09/28/2023 03:15:30 -0.32, 100.05 -0.51, 101.00 108.12 80
5 09/28/2023 15:38:29 0.34, 99.59 -0.44, 96.05 403.33 80
6 09/30/2023 15:19:27 0.32, 97.46 0.86, 99.93 281.76 80
7 10/01/2023 03:42:17 -0.34, 96.81 0.06, 95.02 203.90 80
8 10/03/2023 03:23:14 -0.32, 94.66 -1.20, 98.91 482.57 80
9 10/03/2023 15:46:14 0.33, 94.20 0.28, 93.95 28.17 80
10 10/06/2023 03:47:21 -0.32, 91.41 -0.67, 92.92 173.16 80
11 10/06/2023 16:10:20 0.33, 90.94 -0.30, 87.98 336.71 80
